Tracking 20712 objects as of 28-May-2020
HD Live streaming from Space Station
objects crossing your sky now

COSMOS 970 DEB

Track COSMOS 970 DEB now!
10-day predictions


NORAD ID: 13504
Int'l Code: 1977-121BB
Perigee: 826.5 km
Apogee: 1,136.4 km
Inclination: 66.1 °
Period: 104.6 minutes
Semi major axis: 7352 km
RCS: 0.036 m2 (small)
Launch date: December 21, 1977
Source: Commonwealth of Independent States (former USSR) (CIS)
Launch site: TYURATAM MISSILE AND SPACE COMPLEX (TTMTR)

Note: This is SATELLITE DEBRIS
aabbcc
Your satellite tracking list
Your tracking list is empty




NASA's NSSDC Master Catalog

Two Line Element Set (TLE):
1 13504U 77121BB  20148.95647128 -.00000059 +00000-0 +17496-4 0  9994
2 13504 066.1145 130.1589 0210720 267.2334 121.9224 13.77063062121565
Source of the keplerian elements: AFSPC